Location: Camaret
(48.2753°N, 4.5961°W)
Time: 03:53:41
(UTC+00:00)

SKYMED 2 - Pass Details

Date: 29 October 2020
Orbit: 621 x 623 km, 97.9° (Epoch: 01 December)

Event Time Altitude Azimuth Distance (km) Brightness Sun altitude
Rises 17:48:45 0° 21° (NNE) 2,916 6.7 -8.1°
Reaches altitude 10° 17:51:09 10° 32° (NNE) 2,004 5.8 -8.5°
Maximum altitude 17:55:05 32° 96° (E) 1,066 4.3 -9.1°
Drops below altitude 10° 17:58:59 10° 160° (SSE) 1,987 6.1 -9.7°
Sets 18:01:20 0° 171° (S) 2,888 7.0 -10.1°
